Regional Weather Roundup
Issued by NWS Albany, NY

Home | Current Version | Previous Version | Text Only | Print | Product List | Glossary On
Versions: 1 2 3 4 5 6 7 8 9 10 11 12 13 14 15 16 17 18 19 20 21 22 23 24 25 26 27 28 29 30 31 32 33 34 35 36 37 38 39 40 41 42 43 44 45 46 47 48 49 50
000
ASUS41 KALY 240210
RWRALY

NEW YORK STATE HOURLY WEATHER ROUNDUP
NATIONAL WEATHER SERVICE ALBANY NY
1000 PM EDT SAT SEP 23 2017

NOTE: "FAIR" INDICATES FEW OR NO CLOUDS BELOW 12,000 FEET WITH NO
SIGNIFICANT WEATHER AND/OR NO OBSTRUCTIONS TO VISIBILITY.

NYZ032-033-038>043-046>054-057>066-NYZ062>081-082-084-240300-
EAST


CITY           SKY/WX    TMP DP  RH WIND       PRES   REMARKS
ALBANY         PTCLDY    67  60  78 CALM      30.06S
GLENS FALLS    CLEAR     62  61  96 CALM      30.06R
POUGHKEEPSIE   CLEAR     63  58  83 CALM      30.05R
NEWBURGH       CLEAR     68  61  77 W6        30.07S
MONTGOMERY     CLEAR     63  61  93 CALM      30.06S
WHITE PLAINS   CLEAR     70  55  59 NW6       30.05R
ISLIP          CLEAR     69  66  90 SE3       30.04R
NEW YORK CITY  CLEAR     77  58  51 N3        30.03R
CENTRAL PARK   CLEAR     77  53  43 CALM      30.07R
$$

NYZ005>009-017-018-044>046-055-056-240300-
CENTRAL


CITY           SKY/WX    TMP DP  RH WIND       PRES   REMARKS
FULTON         CLEAR     63  60  90 CALM      30.09R
SYRACUSE       PTCLDY    67  61  81 CALM      30.08R
ROME           CLEAR     64  60  87 CALM      30.10R
ELMIRA         CLEAR     64  63  96 CALM      30.12R
BINGHAMTON     CLEAR     71  60  68 N6        30.14S
MONTICELLO     CLEAR     67  59  75 N5        30.13S
$$

NYZ026>034-041>043-087-240300-
NORTH


CITY           SKY/WX    TMP DP  RH WIND       PRES   REMARKS
WATERTOWN      CLEAR     68  59  73 CALM      30.07R
FORT DRUM      NOT AVBL
OGDENSBURG     FAIR      64  60  87 CALM      30.06R
MASSENA        CLEAR     67  63  87 SW6       30.06R
SARANAC LAKE   CLEAR     60  60 100 CALM      30.12R
PLATTSBURGH    CLEAR     63  60  90 CALM      30.05R
$$

NYZ001>004-010>016-019>021-085-240300-
WEST


CITY           SKY/WX    TMP DP  RH WIND       PRES   REMARKS
NIAGARA FALLS  CLEAR     71  60  68 S5        30.10S
BUFFALO        CLEAR     70  61  73 S7        30.12R
DUNKIRK        CLEAR     65  64  97 S5        30.13S
JAMESTOWN      CLEAR     71  63  75 CALM      30.19R
WELLSVILLE     CLEAR     70  61  73 NW3       30.21R
ROCHESTER      PTCLDY    73  66  78 W6        30.10R
PENN YAN       CLEAR     70  62  76 SW5       30.13R
$$

             KEY
       WCI = WIND CHILL INDEX
       VSB = VISIBILITY
       HX  = HEAT INDEX
$$



USA.gov is the U.S. government's official web portal to all federal, state and local government web resources and services.